カタログに戻る

STARLINK-33921

運用中通信VLEO
NORAD 65934·PAYLOAD·🇺🇸 United States

打ち上げ Oct 8, 2025 から Vandenberg Space Force Base

Loading…

次のパス (今後24時間)

TLE

最新Source: CelesTrak SupGP

元期: Sep 14, 2026, 20:48 UTC

1 65934C 25225AA  26257.86715278  .00013072  00000+0  38647-3 0  2579
2 65934  53.1599   5.7501 0001203  81.4914 119.9367 15.34364383    19

AllMySatでSTARLINK-33921をリアルタイム追跡

Download on the App Store